Regional Weather Roundup
Issued by NWS Charleston, WV

Home | Current Version | Previous Version | Graphics & Text | Print | Product List | Glossary On
Versions: 1 2 3 4 5 6 7 8 9 10 11 12 13 14 15 16 17 18 19 20 21 22 23 24 25 26 27 28 29 30 31 32 33 34 35 36 37 38 39 40 41 42 43 44 45 46 47 48 49 50
000
ASUS41 KRLX 070310
RWRRLX
West Virginia Regional Weather Roundup
National Weather Service Charleston WV
1100 PM EDT MON JUL 06 2015

Note: "fair" indicates few or no clouds below 12,000 feet with no
significant weather and/or obstructions to visibility.

WVZ003-070400-
Northern Panhandle of West Virginia

CITY           SKY/WX    TMP DP  RH WIND       PRES   REMARKS
WHEELING       CLEAR     68  66  93 S6        30.04R
$$

WVZ009-070400-
Northwest West Virginia

CITY           SKY/WX    TMP DP  RH WIND       PRES   REMARKS
PARKERSBURG    MOCLDY    72  68  87 S7        30.07R
$$

WVZ006-070400-
Western West Virginia

CITY           SKY/WX    TMP DP  RH WIND       PRES   REMARKS
HUNTINGTON     CLEAR     71  68  90 S5        30.05R
$$

WVZ015-070400-
West Central West Virginia

CITY           SKY/WX    TMP DP  RH WIND       PRES   REMARKS
CHARLESTON     PTCLDY    71  67  87 CALM      30.07R
$$

WVZ022-031-070400-
North Central West Virginia

CITY           SKY/WX    TMP DP  RH WIND       PRES   REMARKS
CLARKSBURG     MOCLDY    68  67  96 SE3       30.07R
MORGANTOWN     CLOUDY    71  66  84 S6        30.08R
$$

WVZ025-035-042-045-070400-
Southern West Virginia

CITY           SKY/WX    TMP DP  RH WIND       PRES   REMARKS
BECKLEY        CLEAR     65  62  90 CALM      30.16R
LOGAN            N/A     70  68  94 CALM      30.08R
BLUEFIELD      CLEAR     67  62  84 W3        30.19R
LEWISBURG      CLEAR     69  63  81 CALM      30.15S
$$

WVZ047-070400-
Northern Mountains of West Virginia

CITY           SKY/WX    TMP DP  RH WIND       PRES   REMARKS
ELKINS         MOCLDY    69  65  86 CALM      30.12R
$$

WVZ052-070400-
Eastern Panhandle of West Virginia

CITY           SKY/WX    TMP DP  RH WIND       PRES   REMARKS
MARTINSBURG    PTCLDY    72  70  93 CALM      30.03S
PETERSBURG     CLOUDY    69  66  92 CALM      30.06F FOG
$$



USA.gov is the U.S. government's official web portal to all federal, state and local government web resources and services.